Current Version              Previous Version:    01  02  03  04  05  06  07  08  09  10  11  12  13  14  15  16  17  18  19  20  21  22  23  24  25  26  27  28  29  30  
   31  32  33  34  35  36  37  38  39  40  41  42  43  44  45  46  47  48  49  50  51  52  53  54  55  56  57  58  59  60  

[Printable]
247
ASUS44 KEWX 231310
RWRTX
SOUTH TEXAS REGIONAL WEATHER ROUNDUP
NATIONAL WEATHER SERVICE AUSTIN/SAN ANTONIO TX
800 AM CDT THU OCT 23 2014

NOTE: "FAIR" INDICATED FEW OR NO CLOUDS BELOW 12,000 FEET WITH NO
SIGNIFICANT WEATHER AND/OR OBSTRUCTIONS TO VISIBILITY.

* - THESE STATIONS ARE NOT NWS OR FAA STATIONS...AND ARE NOT SUBJECT
    TO NWS AND FAA QUALITY CONTROL.

TXZ171-172-183>190-231400-
TEXAS HILL COUNTRY AND EDWARDS PLATEAU

CITY           SKY/WX    TMP DP  RH WIND       PRES   REMARKS
JUNCTION       PTCLDY    56  55  97 NW3       30.14R FOG
*LLANO           N/A     64  61  88 CALM      30.15
BURNET         MOCLDY    65  59  81 CALM      30.15R
*HORSESHOE BAY MOCLDY    64  59  85 CALM      30.13S
*KERRVILLE       N/A     61  60  94 CALM      30.14S FOG
*FREDERICKSBRG CLOUDY    63  60  92 CALM      30.14S
*ROCKSPRINGS   CLEAR     59  57  94 SE3       30.16R FOG
*BOERNE STAGE    N/A     61  59  94 CALM      30.14S VSB 1
*CASTROVILLE   MOCLDY    67  65  93 NW3       30.14R
HONDO          CLOUDY    63  63 100 NE5       30.14R
*UVALDE        PTCLDY    65  65  97 E6        30.12R FOG
DEL RIO        CLOUDY    64  62  93 NE5       30.10R
LAUGHLIN AFB   MOCLDY    61  61 100 NE3       30.11R
CARRIZO SPRGS  CLOUDY    68  64  88 CALM      30.09R
$$

TXZ173-191>194-202-209-217>225-228-231400-
CENTRAL AND SOUTH CENTRAL TEXAS

CITY           SKY/WX    TMP DP  RH WIND       PRES   REMARKS
GEORGETOWN     CLOUDY    64  61  88 CALM      30.13R
AUSTIN/BERGSTM MOCLDY    65  62  90 CALM      30.12R
AUSTIN/MABRY   CLOUDY    67  61  81 CALM      30.13R
*AUSTIN/EXEC   MOCLDY    64  59  82 CALM      30.13R
*LAGO VISTA    MOCLDY    66  61  85 CALM      30.14S
SAN MARCOS     CLEAR     64  59  82 NW3       30.13R FOG
NEW BRAUNFELS  MOCLDY    66  66 100 CALM      30.11R FOG
RANDOLPH AFB   CLOUDY    66  64  92 N2        30.12R
PT SAN ANTONIO MOCLDY    67  62  83 NW2       30.10R
SAN ANTONIO    CLOUDY    68  65  90 CALM      30.12R
STINSON FIELD  CLOUDY    69  62  78 CALM      30.10R
*PLEASANTON    MOCLDY    65  64  93 CALM      30.11R
*LA GRANGE     CLOUDY    64  63  95 CALM      30.10R
*GIDDINGS      CLOUDY    63  59  86 CALM      30.16R
*GONZALES      CLOUDY    66  62  87 CALM      30.11R
$$

TXZ163>164-176>182-195>201-210>213-226-227-235-231400-
SOUTHEAST TEXAS

CITY           SKY/WX    TMP DP  RH WIND       PRES   REMARKS
COLLEGE STN    LGT RAIN  64  55  72 NE5       30.13R
*BRYAN         CLOUDY    61  57  87 CALM      30.15R
*CALDWELL      CLOUDY    63  59  88 CALM      30.16S
*CROCKETT      CLOUDY    61  57  88 CALM      30.16R
*BRENHAM       CLOUDY    64  56  77 CALM      30.14R
HUNTSVILLE     CLOUDY    60  54  80 CALM      30.13R
CONROE         CLOUDY    59  53  80 VRB3      30.12R
HOUSTON BUSH   CLOUDY    61  55  81 VRB5      30.10R
HOUSTON HOBBY  CLOUDY    64  56  75 NE5       30.08S
*HOUSTON SW AP CLOUDY    55  52  88 NE3       30.09S
PEARLAND       CLOUDY    63  57  81 NE6       30.10R
HOUSTON HOOKS  CLOUDY    61  53  75 NE5       30.12R
ELLINGTON FLD  NOT AVBL
SUGAR LAND     CLOUDY    63  57  81 N5        30.10R
*HOUSTON EXEC  CLOUDY    59 N/A N/A NE5       30.11S
*CLEVELAND MUN NOT AVBL
*WHARTON       MOCLDY    62  58  89 CALM      30.11R
*COLUMBUS      FAIR      62  59  92 NE3       30.10S
$$

TXZ214>216-236>238-231400-
THE UPPER TEXAS COAST

CITY           SKY/WX    TMP DP  RH WIND       PRES   REMARKS
*ORANGE        PTCLDY    55  53  91 NE6       30.11S
PORT ARTHUR    PTCLDY    59  52  77 NE6       30.09R
GALVESTON      PTCLDY    67  62  84 NE9       30.08R
ANGLETON       PTCLDY    59  57  93 NE7       30.08R
*BAY CITY        N/A     63  61  92 N5        30.08R
PALACIOS       MOCLDY    62  60  93 N7        30.08R FOG
$$

TXZ229>234-239>247-231400-
TEXAS COASTAL BEND AND RIO GRANDE PLAINS

CITY           SKY/WX    TMP DP  RH WIND       PRES   REMARKS
VICTORIA       MOCLDY    63  59  87 N3        30.10R FOG
*BEEVILLE      MOCLDY    67  62  84 N5        30.09R
ROCKPORT       PTCLDY    68  64  87 NE8       30.07R
*PORT ARANSAS  MOCLDY    70  67  89 N10       30.05R
*PORT LAVACA   MOCLDY    61  59  93 N5        30.09R
*INGLESIDE     PTCLDY    66  64  93 N5        30.06R
CORPUS CHRISTI MOCLDY    66  63  90 N8        30.07R
CORPUS NAS     MOCLDY    72  69  90 N10       30.05R
*ROBSTOWN      HVY RAIN  65  64  94 N8        30.07
ALICE          MOCLDY    65  63  93 N7        30.08R
KINGSVILLE NAS MOCLDY    65  64  97 N7        30.06R FOG
COTULLA        MOCLDY    70  65  84 E6        30.10R
*FAITH RANCH   PTCLDY    64  61  88 E5        30.09R
LAREDO         MOCLDY    69  64  84 E6        30.11R
$$

TXZ248>255-231400-
DEEP SOUTH TEXAS

CITY           SKY/WX    TMP DP  RH WIND       PRES   REMARKS
BROWNSVILLE    PTCLDY    69  67  93 NW5       30.03R
PORT ISABEL    CLEAR     71  68  90 NW6       30.03R FOG
*SOUTH PADRE     N/A    N/A N/A N/A NE7       30.02R
HARLINGEN      PTCLDY    66  65  96 NW6       30.04R FOG
*HEBBRONVILLE  MOCLDY    67  63  89 CALM      30.09R
MCALLEN        MOCLDY    70  66  87 N8        30.06R
*WESLACO       PTCLDY    67  64  90 CALM      30.05R FOG
FALFURRIAS     MOCLDY    66  64  93 NW3       30.06R
EDINBURG       PTCLDY    68  65  90 CALM      30.06R
*ZAPATA        CLOUDY    69  65  86 CALM      30.07R
$$

TXZ213>215-236>238-242>244-246-247-251-254-255-231400-
CMAN STATIONS

STATION/POSITION TIME  TEMP    WIND        PRES    WAVE
                       AIR SEA DIR/SP/G            HT/PER
                 (UTC) (F)     (DEG/KT/KT) (MB)    (FT/S)
SABINE PASS      1300   59 72   50/  7/  9 1018.7
SEA RIM ST PARK  1300   60      40/  7/  9 1019.7
NORTH JETTY/GLS  1300   67 74   90/ 13/ 16   N/A
EAGLE POINT      1300   66 73   80/ 12/ 14 1018.7
MORGANS POINT    1300   63      60/  8/ 11 1018.7
MISSION/ARANSAS  1200           30/  7     1019.0
PORT O`CONNOR    1300           30/ 13/ 16   N/A
PORT ARANSAS     1300   72 77  360/  9/ 11 1018.4
MALAQUITE BEACH  1300   76 77   40/  8/  9 1017.0
BAFFIN BAY       1300   71 81  350/  7/  8 1017.4
PORT ISABEL      1300   78 79   10/  6/  8 1016.6
$$

GMZ080-GMZ150>470-231400-
OFFSHORE BUOY REPORTS

STATION/POSITION TIME  TEMP    WIND        PRES    WAVE
                       AIR SEA DIR/SP/G            HT/PER
                 (UTC) (F)     (DEG/KT/KT) (MB)    (FT/S)
20 E GALVESTON   1300   70 78   50/ 14/ 16 1018.1    3/ 5
90 E PT ARANSAS  1300   77 81   70/  8/ 10 1017.5    4/ 7
35 NE PT MANSFLD 1300   78 81   30/  8/ 10 1016.7    5/ 7
200 E PT ISABEL  1300   79 81   60/ 14/ 17 1015.1    7/ 8
$$